Weather History for Reno, NV

Change the Weather History Date:

Wednesday, June 27, 2012

  Actual Average Record
Temperature  
Mean Temperature 70 °F 71 °F  
Max Temperature 89 °F 88 °F 100 °F (1937)
Min Temperature 51 °F 55 °F 32 °F (1974)
Degree Days  
Heating Degree Days 0 1  
Month to date heating degree days 47 55  
Since 1 June heating degree days 47 55  
Since 1 July heating degree days 4590 4923  
Cooling Degree Days 5 7  
Month to date cooling degree days 147 115  
Year to date cooling degree days 211 152  
Since 1 June cooling degree days 147 115  
Growing Degree Days 20 (Base 50)    
Moisture  
Dew Point 29 °F    
Average Humidity 26    
Maximum Humidity 44    
Minimum Humidity 8    
Precipitation  
Precipitation 0.00 in 0.01 in 0.22 in (1991)
Month to date precipitation T 0.48  
Year to date precipitation 2.62 4.25  
Snow  
Snow 0.00 in 0.00 in 0.00 in ()
Month to date snowfall 0.0 0.0  
Since 1 June snowfall 0.0 0.0  
Since 1 July snowfall 8.2 21.8  
Snow Depth 0.00 in    
Sea Level Pressure  
Sea Level Pressure 29.84 in    
Wind  
Wind Speed 7 mph (NW)    
Max Wind Speed 23 mph    
Max Gust Speed 26 mph    
Visibility 10 miles    
Events      
T = Trace of Precipitation, MM = Missing Value Source: NWS Daily Summary

Daily Weather History Graph

Daily Weather History Graph

Search for Another Location

Airport:

Trip Planner

Search our weather history database for the weather conditions in past years. The results will help you decide how hot, cold, wet, or windy it might be!

Date:

Astronomy

Jun. 27, 2012 Rise Set
Actual Time 5:34 AM PDT 8:30 PM PDT
Civil Twilight 5:01 AM PDT 9:02 PM PDT
Nautical Twilight 4:20 AM PDT 9:43 PM PDT
Astronomical Twilight 3:33 AM PDT 10:31 PM PDT
Moon 2:01 PM PDT (6/27) 12:34 AM PDT (6/27)
Length of Visible Light 16h 01m
Length of Day
14h 56m
First Quarter, 57% of the Moon is Illuminated
Jun 27
First Quarter
Jul 3
Full
Jul 10
Last Quarter
Jul 18
New
Jul 26
First Quarter

Hourly Weather History & Observations

Time (PDT) Temp. Dew Point Humidity Pressure Visibility Wind Dir Wind Speed Gust Speed Precip Events Conditions
12:55 AM 61.0 °F 27.0 °F 27% 29.86 in 10.0 mi NW 4.6 mph - N/A   Clear
1:55 AM 57.9 °F 28.0 °F 32% 29.85 in 10.0 mi West 4.6 mph - N/A   Clear
2:55 AM 55.9 °F 28.9 °F 36% 29.87 in 10.0 mi Calm Calm - N/A   Clear
3:55 AM 53.1 °F 30.0 °F 41% 29.87 in 10.0 mi WNW 4.6 mph - N/A   Clear
4:55 AM 53.1 °F 30.0 °F 41% 29.88 in 10.0 mi West 3.5 mph - N/A   Clear
5:55 AM 52.0 °F 30.0 °F 43% 29.89 in 10.0 mi West 5.8 mph - N/A   Clear
6:55 AM 54.0 °F 30.9 °F 41% 29.90 in 10.0 mi NW 3.5 mph - N/A   Clear
7:55 AM 57.0 °F 28.9 °F 34% 29.89 in 10.0 mi Calm Calm - N/A   Partly Cloudy
8:55 AM 63.0 °F 28.9 °F 28% 29.89 in 10.0 mi Calm Calm - N/A   Partly Cloudy
9:55 AM 69.1 °F 27.0 °F 21% 29.87 in 10.0 mi Variable 3.5 mph - N/A   Partly Cloudy
10:55 AM 73.9 °F 21.9 °F 14% 29.85 in 10.0 mi Variable 4.6 mph - N/A   Partly Cloudy
11:55 AM 77.0 °F 19.9 °F 12% 29.84 in 10.0 mi Variable 3.5 mph - N/A   Partly Cloudy
12:55 PM 80.1 °F 18.0 °F 10% 29.82 in 10.0 mi NNE 3.5 mph - N/A   Clear
1:55 PM 84.0 °F 18.0 °F 9% 29.80 in 10.0 mi NNE 5.8 mph - N/A   Clear
2:55 PM 84.9 °F 19.0 °F 9% 29.79 in 10.0 mi NNE 9.2 mph 16.1 mph N/A   Partly Cloudy
3:55 PM 87.1 °F 21.9 °F 9% 29.78 in 10.0 mi Variable 4.6 mph - N/A   Partly Cloudy
4:55 PM 87.1 °F 28.0 °F 12% 29.77 in 10.0 mi WNW 11.5 mph - N/A   Clear
5:55 PM 86.0 °F 36.0 °F 17% 29.77 in 10.0 mi NW 16.1 mph 20.7 mph N/A   Partly Cloudy
6:55 PM 84.0 °F 36.0 °F 18% 29.77 in 10.0 mi NW 18.4 mph 24.2 mph N/A   Clear
7:55 PM 80.1 °F 36.0 °F 20% 29.79 in 10.0 mi NW 15.0 mph 24.2 mph N/A   Clear
8:55 PM 75.0 °F 37.0 °F 25% 29.81 in 10.0 mi NW 16.1 mph - N/A   Clear
9:55 PM 72.0 °F 37.0 °F 28% 29.84 in 10.0 mi NW 4.6 mph - N/A   Clear
10:55 PM 70.0 °F 37.9 °F 31% 29.86 in 10.0 mi Variable 5.8 mph - N/A   Clear
11:55 PM 68.0 °F 37.0 °F 32% 29.87 in 10.0 mi North 5.8 mph - N/A   Clear